FW7828 Weather Reports


time (UTC)temp
C
wind
direction
speed
KPH
gust
KPH
rain 1hr
cm
rain 24hr
cm
rain mn
cm
humidity
%
barometer
mb
20260510125336 19 84 1.6 1.6 0.00 0.00 0.00 91 1013.3
20260510124833 19 193 1.6 1.6 0.00 0.00 0.00 92 1013.2
20260510124330 19 295 0.0 0.0 0.00 0.00 0.00 93 1013.3
20260510123826 19 160 1.6 1.6 0.00 0.00 0.00 93 1013.3
20260510123321 19 132 1.6 1.6 0.00 0.00 0.00 93 1012.8
20260510122818 18 193 1.6 1.6 0.00 0.00 0.00 93 1013.1
20260510122313 18 133 0.0 0.0 0.00 0.00 0.00 94 1013.1
20260510121809 18 209 3.2 3.2 0.00 0.00 0.00 95 1012.8
20260510121302 18 149 0.0 0.0 0.00 0.00 0.00 96 1013.0
20260510120759 18 124 0.0 0.0 0.00 0.00 0.00 96 1013.0
20260510120255 18 16 0.0 0.0 0.00 0.00 0.00 96 1012.8
20260510115751 18 137 0.0 0.0 0.00 0.00 0.00 96 1012.8
20260510115249 18 100 0.0 0.0 0.00 0.00 0.00 96 1012.8
20260510114743 18 103 0.0 0.0 0.00 0.00 0.00 96 1012.7
20260510114242 18 135 0.0 0.0 0.00 0.00 0.00 96 1012.7
20260510113731 18 163 0.0 0.0 0.00 0.00 0.00 96 1012.9
20260510113228 18 232 0.0 0.0 0.00 0.00 0.00 96 1012.6
20260510112724 18 181 0.0 1.6 0.00 0.00 0.00 97 1012.6
20260510112222 18 167 0.0 0.0 0.00 0.00 0.00 97 1012.5
20260510111717 18 300 0.0 0.0 0.00 0.00 0.00 97 1012.6
20260510111215 18 198 0.0 0.0 0.00 0.00 0.00 97 1012.4
20260510110714 18 210 0.0 0.0 0.00 0.00 0.00 97 1012.5
20260510110212 18 222 0.0 0.0 0.00 0.00 0.00 97 1012.1
20260510105712 18 227 0.0 0.0 0.00 0.00 0.00 97 1012.5
20260510105207 18 255 0.0 0.0 0.00 0.00 0.00 97 1012.3
20260510104703 18 237 0.0 0.0 0.00 0.00 0.00 97 1012.1
20260510104201 18 249 0.0 0.0 0.00 0.00 0.00 97 1012.0
20260510103657 17 251 0.0 0.0 0.00 0.00 0.00 97 1011.9
20260510103154 17 259 0.0 0.0 0.00 0.00 0.00 97 1012.0
20260510102654 17 277 0.0 0.0 0.00 0.00 0.00 97 1011.9
20260510102150 17 277 0.0 0.0 0.00 0.00 0.00 97 1011.9
20260510101648 17 313 0.0 0.0 0.00 0.00 0.00 97 1011.8
20260510101146 17 284 0.0 0.0 0.00 0.00 0.00 97 1011.5
20260510100642 17 284 0.0 0.0 0.00 0.00 0.00 96 1011.2
20260510100139 17 334 0.0 0.0 0.00 0.00 0.00 96 1011.4
20260510095635 17 319 0.0 0.0 0.00 0.00 0.00 96 1011.4
20260510095130 17 319 0.0 0.0 0.00 0.00 0.00 96 1011.4
20260510094629 16 318 0.0 0.0 0.00 0.00 0.00 96 1011.3
20260510094125 16 317 0.0 0.0 0.00 0.00 0.00 96 1011.3
20260510093622 17 317 0.0 0.0 0.00 0.00 0.00 96 1011.2
20260510093119 17 316 0.0 0.0 0.00 0.00 0.00 96 1011.3
20260510092615 17 322 0.0 0.0 0.00 0.00 0.00 96 1011.3
20260510092115 17 323 0.0 0.0 0.00 0.00 0.00 96 1011.1
20260510091612 17 323 0.0 0.0 0.00 0.00 0.00 96 1011.0
20260510091108 17 314 0.0 0.0 0.00 0.00 0.00 96 1011.2
20260510090605 17 318 0.0 0.0 0.00 0.00 0.00 96 1010.9
20260510090101 17 328 0.0 0.0 0.00 0.00 0.00 96 1010.9
20260510085555 17 316 0.0 0.0 0.00 0.00 0.00 96 1011.0
20260510085052 17 305 0.0 0.0 0.00 0.00 0.00 96 1010.7
20260510084549 17 338 0.0 0.0 0.00 0.00 0.00 96 1010.8
20260510084046 17 324 0.0 0.0 0.00 0.00 0.00 96 1010.8
20260510083542 17 308 0.0 0.0 0.00 0.00 0.00 96 1011.0
20260510083038 17 306 0.0 0.0 0.00 0.00 0.00 96 1010.7
20260510082535 17 329 0.0 0.0 0.00 0.00 0.00 96 1010.6
20260510082031 17 315 0.0 0.0 0.00 0.00 0.00 96 1010.5
20260510081526 17 334 0.0 0.0 0.00 0.00 0.00 96 1010.9
20260510081022 17 323 0.0 0.0 0.00 0.00 0.00 96 1010.8
20260510080521 17 325 0.0 0.0 0.00 0.00 0.00 96 1010.7
20260510080018 17 327 0.0 0.0 0.00 0.00 0.00 96 1010.8
20260510075515 17 314 0.0 0.0 0.00 0.00 0.00 96 1010.8
20260510075012 17 322 0.0 0.0 0.00 0.00 0.00 96 1010.9
20260510074510 17 296 0.0 0.0 0.00 0.00 0.00 96 1010.6
20260510074005 18 268 0.0 0.0 0.00 0.00 0.00 96 1010.6
20260510073501 18 268 0.0 0.0 0.00 0.00 0.00 96 1010.6
20260510072958 17 332 0.0 0.0 0.00 0.00 0.00 96 1010.8
20260510072454 17 0 0.0 0.0 0.00 0.00 0.00 96 1010.6
20260510071950 17 7 0.0 0.0 0.00 0.00 0.00 96 1010.6
20260510071447 17 21 0.0 0.0 0.00 0.00 0.00 96 1010.5
20260510070945 17 7 0.0 0.0 0.00 0.00 0.00 96 1010.3
20260510070442 17 7 0.0 0.0 0.00 0.00 0.00 95 1010.1
20260510065937 18 7 0.0 0.0 0.00 0.00 0.00 95 1010.4
20260510065435 18 39 0.0 0.0 0.00 0.00 0.00 96 1010.4
20260510064930 18 11 0.0 0.0 0.00 0.00 0.00 95 1010.5
20260510064428 18 58 0.0 0.0 0.00 0.00 0.00 95 1010.5
20260510063925 18 58 0.0 0.0 0.00 0.00 0.00 95 1010.5
20260510063420 18 58 0.0 0.0 0.00 0.00 0.00 95 1010.4
20260510062919 18 59 0.0 0.0 0.00 0.00 0.00 95 1010.5
20260510062414 18 99 0.0 0.0 0.00 0.00 0.00 95 1010.4
20260510061910 18 355 0.0 0.0 0.00 0.00 0.00 95 1010.7
20260510061406 18 342 0.0 0.0 0.00 0.00 0.00 95 1010.5
20260510060903 18 352 0.0 0.0 0.00 0.00 0.00 95 1010.7
20260510060359 18 339 0.0 0.0 0.00 0.00 0.00 95 1010.6
20260510055856 18 327 0.0 0.0 0.00 0.00 0.00 95 1010.6
20260510055355 18 17 0.0 0.0 0.00 0.00 0.00 95 1010.4
20260510054854 18 19 0.0 0.0 0.00 0.00 0.00 95 1010.5
20260510054350 18 19 0.0 0.0 0.00 0.00 0.00 95 1010.7
20260510053845 18 18 0.0 0.0 0.00 0.00 0.00 95 1011.0
20260510053341 18 18 0.0 0.0 0.00 0.00 0.00 95 1011.0
20260510052838 18 359 0.0 0.0 0.00 0.00 0.00 95 1011.1
20260510052333 18 2 0.0 0.0 0.00 0.00 0.00 95 1010.9
20260510051830 18 17 0.0 0.0 0.00 0.00 0.00 94 1010.9
20260510051327 18 89 0.0 0.0 0.00 0.00 0.00 95 1011.0
20260510050824 18 337 0.0 0.0 0.00 0.00 0.00 94 1011.1
20260510050320 18 323 0.0 0.0 0.00 0.00 0.00 94 1011.1
20260510045817 18 332 0.0 0.0 0.00 0.00 0.00 94 1010.9
20260510045314 18 337 0.0 0.0 0.00 0.00 0.00 94 1011.2
20260510044811 18 331 0.0 0.0 0.00 0.00 0.00 94 1010.9
20260510044308 17 338 0.0 0.0 0.00 0.00 0.00 94 1011.2
20260510043804 17 327 0.0 0.0 0.00 0.00 0.00 94 1010.9
20260510043300 18 328 0.0 0.0 0.00 0.00 0.00 94 1010.6
20260510042758 17 335 0.0 0.0 0.00 0.00 0.00 94 1010.7
20260510042253 17 341 0.0 0.0 0.00 0.00 0.00 93 1010.8
20260510041750 17 332 0.0 0.0 0.00 0.00 0.00 93 1010.7
20260510041247 17 342 0.0 0.0 0.00 0.00 0.00 93 1010.7
20260510040745 17 341 0.0 0.0 0.00 0.00 0.00 93 1010.8
20260510040236 17 351 0.0 0.0 0.00 0.00 0.00 93 1010.7
20260510035731 17 358 0.0 0.0 0.00 0.00 0.00 93 1010.8
20260510035227 17 359 0.0 0.0 0.00 0.00 0.00 93 1010.6
20260510034723 17 41 0.0 0.0 0.00 0.00 0.00 92 1010.6
20260510034222 17 338 0.0 0.0 0.00 0.00 0.00 92 1010.5
20260510033717 17 337 0.0 0.0 0.00 0.00 0.00 92 1010.3
20260510033215 17 334 0.0 0.0 0.00 0.00 0.00 92 1010.6
20260510032711 17 341 0.0 0.0 0.00 0.00 0.00 92 1010.5
20260510032207 17 340 0.0 0.0 0.00 0.00 0.00 91 1010.4
20260510031702 17 340 0.0 0.0 0.00 0.00 0.00 91 1010.5
20260510031159 17 340 0.0 0.0 0.00 0.00 0.00 91 1010.2
20260510030658 18 342 0.0 0.0 0.00 0.00 0.00 91 1010.3
20260510030156 18 342 0.0 0.0 0.00 0.00 0.00 91 1010.3
20260510025653 18 341 0.0 0.0 0.00 0.00 0.00 91 1010.2
20260510025150 18 340 0.0 0.0 0.00 0.00 0.00 90 1010.2
20260510024647 18 330 0.0 0.0 0.00 0.00 0.00 90 1010.4
20260510024143 18 329 0.0 0.0 0.00 0.00 0.00 91 1010.6
20260510023639 18 335 0.0 0.0 0.00 0.00 0.00 90 1010.3
20260510023131 18 359 0.0 0.0 0.00 0.00 0.00 90 1010.2
20260510022631 18 326 0.0 0.0 0.00 0.00 0.00 89 1010.1
20260510022121 18 326 0.0 0.0 0.00 0.00 0.00 89 1010.1
20260510021616 18 325 0.0 0.0 0.00 0.00 0.00 89 1010.3
20260510021114 18 326 0.0 0.0 0.00 0.00 0.00 89 1010.2
20260510020608 18 335 0.0 0.0 0.00 0.00 0.00 88 1010.4
20260510020103 18 339 0.0 0.0 0.00 0.00 0.00 88 1010.3
20260510015600 18 339 0.0 0.0 0.00 0.00 0.00 88 1010.0
20260510015056 18 339 0.0 0.0 0.00 0.00 0.00 88 1010.2
20260510014551 18 0 0.0 0.0 0.00 0.00 0.00 87 1010.3
20260510014049 18 320 0.0 0.0 0.00 0.00 0.00 87 1010.2
20260510013544 18 319 0.0 0.0 0.00 0.00 0.00 87 1010.1
20260510013040 18 329 0.0 0.0 0.00 0.00 0.00 87 1010.2
20260510012539 18 344 0.0 0.0 0.00 0.00 0.00 87 1010.1
20260510012037 19 347 0.0 0.0 0.00 0.00 0.00 87 1010.2
20260510011536 19 336 0.0 0.0 0.00 0.00 0.00 87 1010.3
20260510011032 19 310 0.0 0.0 0.00 0.00 0.00 87 1010.0
20260510010529 19 333 0.0 1.6 0.00 0.00 0.00 86 1010.0
20260510010026 19 330 0.0 0.0 0.00 0.00 0.00 86 1010.1
20260510005521 20 334 0.0 0.0 0.00 0.00 0.00 85 1010.0
20260510005020 20 332 0.0 1.6 0.00 0.00 0.00 86 1010.0
20260510004517 19 350 1.6 1.6 0.00 0.00 0.00 87 1010.0
20260510004015 19 293 0.0 0.0 0.00 0.00 0.00 87 1009.8
20260510003511 19 333 0.0 0.0 0.00 0.00 0.00 87 1009.5
20260510003007 19 344 1.6 1.6 0.00 0.00 0.00 86 1009.5
20260510002503 20 334 0.0 0.0 0.00 0.00 0.00 86 1009.5
20260510001959 20 234 1.6 1.6 0.00 0.00 0.00 86 1009.4
20260510001457 20 355 0.0 0.0 0.00 0.00 0.00 86 1009.4
20260510000955 20 338 0.0 0.0 0.00 0.00 0.00 85 1009.4
20260510000450 20 340 0.0 0.0 0.00 0.00 0.00 85 1009.4
20260509235947 20 355 0.0 0.0 0.00 0.00 0.00 84 1009.2
20260509235444 20 338 0.0 0.0 0.00 0.00 0.00 84 1009.7
20260509234940 21 337 0.0 0.0 0.00 0.00 0.00 83 1009.4
20260509234437 21 337 0.0 0.0 0.00 0.00 0.00 82 1009.1
20260509233935 21 337 0.0 0.0 0.00 0.00 0.00 81 1009.2
20260509233432 21 337 0.0 0.0 0.00 0.00 0.00 80 1009.1
20260509232928 21 274 0.0 0.0 0.00 0.00 0.00 80 1009.2
20260509232426 21 339 0.0 0.0 0.00 0.00 0.00 79 1009.2
20260509231921 21 340 0.0 0.0 0.00 0.00 0.00 78 1009.3
20260509231418 22 301 0.0 0.0 0.00 0.00 0.00 79 1009.2
20260509230916 22 20 1.6 1.6 0.00 0.00 0.00 79 1009.1
20260509230413 22 333 0.0 0.0 0.00 0.00 0.00 80 1009.1
20260509225908 22 285 0.0 0.0 0.00 0.00 0.00 80 1009.3
20260509225406 22 269 0.0 0.0 0.00 0.00 0.00 79 1009.0
20260509224901 22 49 0.0 0.0 0.00 0.00 0.00 78 1008.8
20260509224357 22 109 0.0 0.0 0.00 0.00 0.00 78 1009.2
20260509223855 22 201 0.0 0.0 0.00 0.00 0.00 78 1009.1
20260509223351 22 182 0.0 0.0 0.00 0.00 0.00 78 1009.0
20260509222848 22 176 3.2 3.2 0.00 0.00 0.00 77 1009.2
20260509222343 22 236 0.0 0.0 0.00 0.00 0.00 76 1009.1
20260509221838 22 241 0.0 0.0 0.00 0.00 0.00 75 1009.2
20260509221336 22 267 0.0 0.0 0.00 0.00 0.00 75 1009.2
20260509220831 22 233 0.0 1.6 0.00 0.00 0.00 76 1008.9
20260509220328 22 250 0.0 0.0 0.00 0.00 0.00 74 1009.1
20260509215823 22 274 0.0 0.0 0.00 0.00 0.00 72 1008.9
20260509215320 22 254 0.0 0.0 0.00 0.00 0.00 72 1009.0
20260509214817 22 47 0.0 1.6 0.00 0.00 0.00 69 1009.0
20260509214314 23 236 0.0 0.0 0.00 0.00 0.00 69 1009.0
20260509213811 23 254 0.0 0.0 0.00 0.00 0.00 67 1009.0
20260509213307 23 248 0.0 0.0 0.00 0.00 0.00 64 1008.8
20260509212804 23 194 0.0 0.0 0.00 0.00 0.00 64 1008.8
20260509212305 23 196 0.0 0.0 0.00 0.00 0.00 65 1008.8
20260509211757 23 289 0.0 0.0 0.00 0.00 0.00 63 1008.7
20260509211253 23 139 0.0 0.0 0.00 0.00 0.00 63 1008.9
20260509210750 23 75 0.0 0.0 0.00 0.00 0.00 63 1009.0
20260509210248 23 160 1.6 3.2 0.00 0.00 0.00 61 1008.9
20260509205747 23 31 0.0 0.0 0.00 0.00 0.00 63 1009.0
20260509205242 23 117 1.6 1.6 0.00 0.00 0.00 61 1008.9
20260509204738 23 245 0.0 0.0 0.00 0.00 0.00 62 1009.0
20260509204235 23 162 0.0 0.0 0.00 0.00 0.00 63 1009.1
20260509203731 23 309 4.8 4.8 0.00 0.00 0.00 62 1008.9
20260509203229 23 130 1.6 1.6 0.00 0.00 0.00 60 1009.1
20260509202725 24 155 3.2 3.2 0.00 0.00 0.00 59 1009.1
20260509202220 25 171 0.0 0.0 0.00 0.00 0.00 55 1009.1
20260509201715 24 251 0.0 0.0 0.00 0.00 0.00 59 1008.8
20260509201212 23 208 0.0 1.6 0.00 0.00 0.00 60 1009.1
20260509200708 24 213 1.6 3.2 0.00 0.00 0.00 60 1009.2
20260509200204 24 131 3.2 4.8 0.00 0.00 0.00 59 1009.0
20260509195700 24 146 3.2 4.8 0.00 0.00 0.00 62 1009.3
20260509195155 24 164 3.2 4.8 0.00 0.00 0.00 60 1009.2
20260509194655 24 165 1.6 1.6 0.00 0.00 0.00 60 1009.3
20260509194152 24 165 4.8 8.0 0.00 0.00 0.00 60 1009.3
20260509193648 23 300 1.6 1.6 0.00 0.00 0.00 60 1009.5
20260509193144 23 296 0.0 0.0 0.00 0.00 0.00 57 1009.3
20260509192640 24 176 3.2 3.2 0.00 0.00 0.00 57 1009.3
20260509192136 24 52 0.0 0.0 0.00 0.00 0.00 55 1009.5
20260509191635 24 94 0.0 0.0 0.00 0.00 0.00 55 1009.3
20260509191132 24 135 1.6 1.6 0.00 0.00 0.00 56 1009.6
20260509190629 24 258 0.0 0.0 0.00 0.00 0.00 56 1009.8
20260509190127 24 149 4.8 8.0 0.00 0.00 0.00 54 1009.9
20260509185624 24 237 1.6 1.6 0.00 0.00 0.00 55 1009.9
20260509185120 23 123 0.0 0.0 0.00 0.00 0.00 55 1010.1
20260509184618 23 210 1.6 1.6 0.00 0.00 0.00 55 1010.0
20260509184115 24 138 3.2 3.2 0.00 0.00 0.00 53 1010.0
20260509183610 23 168 3.2 3.2 0.00 0.00 0.00 54 1009.9
20260509183106 23 174 1.6 1.6 0.00 0.00 0.00 54 1010.0
20260509182602 23 169 3.2 3.2 0.00 0.00 0.00 55 1010.0
20260509182059 23 159 4.8 4.8 0.00 0.00 0.00 53 1010.0
20260509181558 23 153 3.2 3.2 0.00 0.00 0.00 53 1010.0
20260509181054 23 79 3.2 8.0 0.00 0.00 0.00 52 1009.9
20260509180550 23 96 1.6 1.6 0.00 0.00 0.00 55 1010.0
20260509180048 23 130 1.6 1.6 0.00 0.00 0.00 56 1009.9
20260509175543 23 252 1.6 3.2 0.00 0.00 0.00 58 1009.9
20260509175040 23 178 4.8 8.0 0.00 0.00 0.00 53 1009.7
20260509174537 23 164 4.8 8.0 0.00 0.00 0.00 57 1010.0
20260509174032 23 176 4.8 9.7 0.00 0.00 0.00 56 1010.2
20260509173526 23 242 3.2 4.8 0.00 0.00 0.00 59 1010.2
20260509173023 23 180 1.6 1.6 0.00 0.00 0.00 62 1010.2
20260509172520 22 149 1.6 1.6 0.00 0.00 0.00 62 1010.4
20260509172016 22 165 6.4 8.0 0.00 0.00 0.00 61 1010.4
20260509171512 22 138 8.0 9.7 0.00 0.00 0.00 63 1010.4
20260509171009 22 176 4.8 4.8 0.00 0.00 0.00 60 1010.7
20260509170504 22 176 4.8 4.8 0.00 0.00 0.00 59 1010.7
20260509170000 23 181 4.8 8.0 0.00 0.00 0.00 59 1010.7
20260509165459 23 112 1.6 1.6 0.00 0.00 0.00 61 1010.5
20260509164955 23 215 8.0 11.3 0.00 0.00 0.00 59 1010.6
20260509164451 22 181 3.2 4.8 0.00 0.00 0.00 61 1010.5
20260509163947 23 164 8.0 12.9 0.00 0.00 0.00 55 1010.6
20260509163445 23 204 6.4 9.7 0.00 0.00 0.00 61 1010.5
20260509162943 22 181 6.4 8.0 0.00 0.00 0.00 65 1010.6
20260509162443 22 168 4.8 8.0 0.00 0.00 0.00 67 1010.6
20260509161938 22 173 4.8 4.8 0.00 0.00 0.00 68 1010.8
20260509161435 21 170 3.2 4.8 0.00 0.00 0.00 70 1010.8
20260509160930 21 216 0.0 0.0 0.00 0.00 0.00 71 1010.8
20260509160426 21 186 3.2 3.2 0.00 0.00 0.00 70 1010.9
20260509155921 22 55 1.6 3.2 0.00 0.00 0.00 68 1011.3
20260509155418 22 172 4.8 8.0 0.00 0.00 0.00 67 1011.4
20260509154915 22 186 6.4 8.0 0.00 0.00 0.00 68 1011.8
20260509154411 22 163 1.6 3.2 0.00 0.00 0.00 66 1011.8
20260509153908 22 172 6.4 8.0 0.00 0.00 0.00 67 1012.0
20260509153405 22 145 3.2 4.8 0.00 0.00 0.00 69 1012.1
20260509152902 22 172 3.2 4.8 0.00 0.00 0.00 70 1011.8
20260509152358 22 291 3.2 3.2 0.00 0.00 0.00 70 1012.4
20260509151855 21 309 0.0 1.6 0.00 0.00 0.00 74 1012.4
20260509151351 22 180 4.8 4.8 0.00 0.00 0.00 73 1012.3
20260509150850 22 243 3.2 3.2 0.00 0.00 0.00 73 1012.6
20260509150347 21 327 3.2 3.2 0.00 0.00 0.00 74 1012.5
20260509145845 21 334 0.0 0.0 0.00 0.00 0.00 74 1012.4
20260509145344 21 200 0.0 0.0 0.00 0.00 0.00 75 1012.5
20260509144841 21 15 1.6 1.6 0.00 0.00 0.00 75 1012.6
20260509144338 21 161 1.6 4.8 0.00 0.00 0.00 77 1012.4
20260509143835 21 151 3.2 3.2 0.00 0.00 0.00 77 1012.7
20260509143333 21 127 0.0 1.6 0.00 0.00 0.00 78 1012.9
20260509142829 20 155 1.6 1.6 0.00 0.00 0.00 80 1012.7
20260509142325 20 132 3.2 3.2 0.00 0.00 0.00 80 1012.7
20260509141821 21 221 0.0 1.6 0.00 0.00 0.00 79 1012.6
20260509141318 21 165 1.6 3.2 0.00 0.00 0.00 76 1012.6
20260509140814 21 179 3.2 3.2 0.00 0.00 0.00 75 1012.6
20260509140311 21 74 0.0 0.0 0.00 0.00 0.00 76 1012.4
20260509135809 21 169 0.0 1.6 0.00 0.00 0.00 78 1012.4
20260509135306 21 193 0.0 1.6 0.00 0.00 0.00 77 1012.4
20260509134804 20 109 1.6 1.6 0.00 0.00 0.00 79 1012.3
20260509134301 20 109 1.6 3.2 0.00 0.00 0.00 80 1012.5
20260509133758 20 257 0.0 0.0 0.00 0.00 0.00 81 1012.5
20260509133254 19 155 3.2 3.2 0.00 0.00 0.00 81 1012.5
20260509132753 19 163 1.6 1.6 0.00 0.00 0.00 81 1012.6
20260509132252 19 167 0.0 1.6 0.00 0.00 0.00 81 1012.7
20260509131748 19 266 0.0 0.0 0.00 0.00 0.00 81 1012.9
20260509131244 18 230 1.6 1.6 0.00 0.00 0.00 83 1012.8
20260509130741 18 169 1.6 1.6 0.00 0.00 0.00 82 1012.9
20260509130236 18 171 1.6 1.6 0.00 0.00 0.00 82 1012.9
20260509125733 18 220 1.6 1.6 0.00 0.00 0.00 83 1012.7